SP6PWT-13 Weather Reports


time (UTC)temp
C
wind
direction
speed
KPH
gust
KPH
rain 1hr
cm
rain 24hr
cm
rain mn
cm
humidity
%
barometer
mb
20260508034857 8 354 6.4 9.7 0.00 0.00 0.00 91 1001.1
20260508034357 8 343 8.0 11.3 0.00 0.00 0.00 92 1001.1
20260508033856 8 29 6.4 9.7 0.00 0.00 0.00 92 1001.1
20260508033356 8 28 8.0 11.3 0.00 0.00 0.00 92 1001.0
20260508032854 8 351 9.7 12.9 0.00 0.00 0.00 92 1001.0
20260508032354 8 2 6.4 9.7 0.00 0.00 0.00 92 1000.8
20260508031853 8 332 3.2 9.7 0.00 0.00 0.00 92 1001.0
20260508031353 8 35 3.2 11.3 0.00 0.00 0.00 92 1000.8
20260508030851 8 341 6.4 9.7 0.00 0.00 0.00 92 1000.8
20260508030351 8 40 4.8 9.7 0.00 0.00 0.00 92 1000.8
20260508025850 8 353 11.3 11.3 0.00 0.00 0.00 92 1000.7
20260508025350 8 47 3.2 9.7 0.00 0.00 0.00 92 1000.7
20260508024850 8 14 6.4 11.3 0.00 0.00 0.00 92 1000.7
20260508024349 8 0 3.2 8.0 0.00 0.00 0.00 92 1000.6
20260508023839 8 36 1.6 4.8 0.00 0.00 0.00 92 1000.7
20260508023338 8 331 3.2 4.8 0.00 0.00 0.00 92 1000.7
20260508022837 8 282 1.6 4.8 0.00 0.00 0.00 92 1000.8
20260508022326 8 326 6.4 8.0 0.00 0.00 0.00 92 1000.6
20260508021825 8 302 4.8 9.7 0.00 0.00 0.00 92 1000.6
20260508021325 8 339 6.4 8.0 0.00 0.00 0.00 92 1000.4
20260508020824 8 312 6.4 9.7 0.00 0.00 0.00 92 1000.4
20260508020314 8 339 8.0 11.3 0.00 0.00 0.00 92 1000.6
20260508015813 8 49 1.6 8.0 0.00 0.00 0.00 92 1000.5
20260508015305 8 359 3.2 9.7 0.00 0.00 0.00 92 1000.6
20260508014802 8 354 11.3 12.9 0.00 0.00 0.00 91 1000.5
20260508014251 8 339 8.0 9.7 0.00 0.00 0.00 91 1000.5
20260508013751 8 21 6.4 11.3 0.00 0.00 0.00 91 1000.4
20260508013251 9 332 8.0 8.0 0.00 0.00 0.00 91 1000.6
20260508012740 9 16 6.4 9.7 0.00 0.00 0.00 91 1000.6
20260508012240 9 351 3.2 11.3 0.00 0.00 0.00 91 1000.4
20260508011728 8 1 4.8 9.7 0.00 0.00 0.00 91 1000.5
20260508011228 9 1 6.4 11.3 0.00 0.00 0.00 91 1000.7
20260508010717 8 336 6.4 14.5 0.00 0.00 0.00 91 1000.4
20260508010217 9 302 6.4 11.3 0.00 0.00 0.00 91 1000.5
20260508005717 9 32 4.8 9.7 0.00 0.00 0.00 91 1000.4
20260508005217 9 1 9.7 11.3 0.00 0.00 0.00 91 1000.6
20260508004716 9 0 8.0 14.5 0.00 0.00 0.00 91 1000.4
20260508004216 9 8 8.0 9.7 0.00 0.00 0.00 91 1000.5
20260508003716 9 29 3.2 9.7 0.00 0.00 0.00 91 1000.6
20260508003205 9 17 6.4 9.7 0.00 0.00 0.00 91 1000.5
20260508002704 9 1 4.8 9.7 0.00 0.00 0.00 91 1000.4
20260508002203 9 38 1.6 4.8 0.00 0.00 0.00 91 1000.5
20260508001652 9 353 6.4 8.0 0.00 0.00 0.00 91 1000.7
20260508001152 9 1 3.2 8.0 0.00 0.00 0.00 91 1000.6
20260508000651 9 330 4.8 9.7 0.00 0.00 0.00 91 1000.5
20260508000150 9 352 3.2 8.0 0.00 0.00 0.00 91 1000.5
20260507235649 9 21 4.8 8.0 0.00 0.00 0.00 91 1000.4
20260507235138 9 355 6.4 9.7 0.00 0.00 0.00 91 1000.5
20260507234638 9 358 6.4 9.7 0.00 0.00 0.00 91 1000.5
20260507234138 9 353 4.8 4.8 0.00 0.00 0.00 91 1000.4
20260507233626 9 355 4.8 11.3 0.00 0.00 0.00 91 1000.6
20260507233126 9 314 3.2 9.7 0.00 0.00 0.00 91 1000.5
20260507232625 9 344 9.7 11.3 0.00 0.00 0.00 91 1000.4
20260507232125 9 340 6.4 9.7 0.00 0.00 0.00 91 1000.6
20260507231623 9 327 6.4 12.9 0.00 0.00 0.00 91 1000.6
20260507231123 9 3 6.4 9.7 0.00 0.00 0.00 91 1000.7
20260507230623 9 346 8.0 11.3 0.00 0.00 0.00 91 1000.4
20260507230123 9 11 6.4 14.5 0.00 0.00 0.00 91 1000.6
20260507225622 9 318 4.8 11.3 0.00 0.00 0.00 91 1000.4
20260507225121 9 12 6.4 12.9 0.00 0.00 0.00 91 1000.5
20260507224621 9 353 8.0 11.3 0.00 0.00 0.00 91 1000.4
20260507224120 9 19 4.8 11.3 0.00 0.00 0.00 91 1000.7
20260507223619 9 285 4.8 4.8 0.00 0.00 0.00 92 1000.7
20260507223118 9 50 1.6 8.0 0.00 0.00 0.00 92 1000.5
20260507222618 9 60 3.2 9.7 0.00 0.00 0.00 91 1000.4
20260507222118 9 30 1.6 9.7 0.00 0.00 0.00 92 1000.5
20260507221617 9 341 4.8 4.8 0.00 0.00 0.00 92 1000.7
20260507221117 9 359 4.8 8.0 0.00 0.00 0.00 92 1000.4
20260507220616 9 12 8.0 11.3 0.00 0.00 0.00 92 1000.5
20260507220116 9 26 6.4 9.7 0.00 0.00 0.00 92 1000.3
20260507215615 9 348 4.8 9.7 0.00 0.00 0.91 91 1000.5
20260507215113 9 345 8.0 12.9 0.00 0.00 0.91 91 1000.5
20260507214613 9 28 4.8 11.3 0.00 0.00 0.91 91 1000.4
20260507214113 9 350 12.9 14.5 0.00 0.00 0.91 91 1000.5
20260507213613 9 350 8.0 11.3 0.00 0.00 0.91 91 1000.5
20260507213112 10 347 6.4 8.0 0.00 0.00 0.91 91 1000.5
20260507212611 9 357 4.8 8.0 0.00 0.00 0.91 92 1000.3
20260507212110 9 334 4.8 8.0 0.00 0.00 0.91 92 1000.3
20260507211609 10 13 6.4 9.7 0.00 0.00 0.91 92 1000.3
20260507211108 10 26 4.8 4.8 0.00 0.00 0.91 92 1000.1
20260507210608 10 68 0.0 3.2 0.00 0.00 0.91 92 1000.2
20260507210108 10 47 1.6 4.8 0.00 0.00 0.91 92 1000.0
20260507205607 10 14 4.8 4.8 0.00 0.00 0.91 92 1000.2
20260507205106 10 336 4.8 8.0 0.00 0.00 0.91 92 1000.2
20260507204606 10 9 3.2 4.8 0.00 0.00 0.91 92 1000.2
20260507204106 10 336 4.8 9.7 0.00 0.00 0.91 92 1000.0
20260507203605 10 40 1.6 8.0 0.00 0.00 0.91 92 1000.0
20260507203104 10 336 6.4 8.0 0.00 0.00 0.91 93 1000.0
20260507202604 9 351 6.4 9.7 0.00 0.00 0.91 93 999.9
20260507202103 9 16 4.8 9.7 0.00 0.00 0.91 92 1000.0
20260507201603 9 36 6.4 11.3 0.00 0.00 0.91 92 999.9
20260507201102 9 22 4.8 12.9 0.00 0.00 0.91 92 999.9
20260507200601 9 30 8.0 12.9 0.00 0.00 0.91 92 999.9
20260507195601 10 11 4.8 9.7 0.00 0.00 0.91 91 999.9
20260507195101 10 14 1.6 8.0 0.00 0.00 0.91 92 999.8
20260507194600 10 12 8.0 9.7 0.00 0.00 0.91 92 999.9
20260507194059 10 30 6.4 11.3 0.00 0.00 0.91 91 999.6
20260507193558 10 339 4.8 9.7 0.00 0.00 0.91 91 999.6
20260507193058 10 19 11.3 12.9 0.00 0.00 0.91 91 999.6
20260507192558 10 355 8.0 14.5 0.00 0.00 0.91 91 999.6
20260507192057 10 9 4.8 14.5 0.00 0.00 0.91 91 999.5
20260507191557 10 340 6.4 11.3 0.00 0.00 0.91 91 999.6
20260507191056 10 319 6.4 8.0 0.00 0.00 0.91 91 999.3
20260507190555 10 4 1.6 3.2 0.00 0.00 0.91 91 999.4
20260507190054 10 31 6.4 11.3 0.00 0.00 0.91 91 999.2
20260507185554 10 41 6.4 8.0 0.00 0.00 0.91 91 999.1
20260507185054 10 0 11.3 14.5 0.00 0.00 0.91 91 999.1
20260507184553 10 352 9.7 12.9 0.00 0.00 0.91 92 999.0
20260507184052 10 346 14.5 16.1 0.00 0.00 0.91 91 998.8
20260507183550 10 343 4.8 11.3 0.00 0.00 0.91 91 998.9
20260507183050 10 3 4.8 8.0 0.00 0.00 0.91 92 998.9
20260507182550 10 358 4.8 11.3 0.00 0.00 0.91 91 998.7
20260507182049 10 346 9.7 11.3 0.00 0.00 0.91 91 998.6
20260507181548 10 34 6.4 8.0 0.00 0.00 0.91 91 998.5
20260507181047 10 328 8.0 11.3 0.00 0.00 0.91 91 998.4
20260507180547 10 56 1.6 4.8 0.00 0.00 0.91 91 998.6
20260507180047 10 3 6.4 9.7 0.00 0.00 0.91 91 998.5
20260507175546 10 13 4.8 8.0 0.00 0.00 0.91 91 998.5
20260507175045 10 10 8.0 11.3 0.00 0.00 0.91 91 998.3
20260507174545 10 359 9.7 12.9 0.00 0.00 0.91 91 998.4
20260507174044 10 350 8.0 12.9 0.00 0.00 0.91 91 998.0
20260507173544 10 349 11.3 14.5 0.00 0.00 0.91 91 998.3
20260507173043 10 1 6.4 12.9 0.00 0.00 0.91 91 998.3
20260507172543 10 32 12.9 16.1 0.00 0.00 0.91 91 998.4
20260507172043 10 6 6.4 9.7 0.00 0.00 0.91 91 998.2
20260507171542 10 339 3.2 4.8 0.00 0.00 0.91 91 998.1
20260507171042 10 348 12.9 16.1 0.00 0.00 0.91 91 998.1
20260507170541 10 349 4.8 16.1 0.00 0.00 0.91 92 998.1
20260507170040 10 339 11.3 16.1 0.00 0.00 0.91 92 998.0
20260507165540 10 358 14.5 16.1 0.00 0.00 0.91 91 997.9
20260507165038 10 3 12.9 14.5 0.00 0.00 0.91 90 998.2
20260507164538 10 357 4.8 9.7 0.00 0.00 0.91 89 998.1
20260507164037 10 347 4.8 11.3 0.00 0.00 0.91 89 997.9
20260507163537 10 29 8.0 14.5 0.00 0.00 0.91 90 997.6
20260507163036 10 24 4.8 11.3 0.00 0.00 0.91 91 997.4
20260507162536 10 33 9.7 22.5 0.00 0.00 0.91 91 997.4
20260507162036 10 326 8.0 16.1 0.00 0.00 0.91 92 997.0
20260507161535 10 336 6.4 14.5 0.00 0.00 0.91 92 997.1
20260507161033 10 11 17.7 20.9 0.00 0.00 0.91 92 997.0
20260507160533 10 38 6.4 14.5 0.00 0.00 0.91 92 996.9
20260507160033 10 34 6.4 12.9 0.00 0.00 0.91 93 997.1
20260507155522 10 16 11.3 16.1 0.00 0.00 0.91 93 997.0
20260507155021 10 7 4.8 12.9 0.00 0.00 0.91 94 997.2
20260507154520 10 7 6.4 14.5 0.00 0.00 0.91 94 997.1
20260507154019 10 338 14.5 16.1 0.00 0.00 0.91 95 997.2
20260507153518 10 25 12.9 20.9 0.00 0.00 0.91 94 997.0
20260507153018 10 352 11.3 14.5 0.00 0.00 0.91 95 997.0
20260507152518 10 9 11.3 16.1 0.00 0.00 0.91 94 997.0
20260507152017 10 7 14.5 20.9 0.00 0.00 0.91 94 996.8
20260507151516 10 2 6.4 16.1 0.00 0.00 0.91 94 996.8
20260507151016 10 341 14.5 20.9 0.00 0.00 0.91 94 996.9
20260507150515 10 352 9.7 14.5 0.00 0.00 0.91 94 996.8
20260507150015 10 356 19.3 22.5 0.00 0.00 0.91 93 996.8
20260507145514 11 3 9.7 12.9 0.00 0.00 0.91 94 996.8
20260507145013 11 19 14.5 24.1 0.00 0.00 0.91 93 996.8
20260507144512 11 10 14.5 17.7 0.00 0.00 0.91 93 996.8
20260507144012 11 0 11.3 17.7 0.00 0.00 0.91 93 996.7
20260507143511 11 329 12.9 24.1 0.00 0.00 0.91 92 996.7
20260507143010 11 346 3.2 14.5 0.00 0.00 0.91 93 996.7
20260507142509 11 348 11.3 16.1 0.00 0.00 0.91 92 996.7
20260507142008 11 354 16.1 20.9 0.00 0.00 0.91 92 996.7
20260507141507 11 33 11.3 14.5 0.00 0.00 0.91 92 996.6
20260507141007 11 344 12.9 20.9 0.00 0.00 0.91 92 996.8
20260507140505 11 348 14.5 17.7 0.00 0.00 0.91 92 996.6
20260507140006 11 330 11.3 14.5 0.00 0.00 0.91 92 996.6
20260507135504 11 27 9.7 17.7 0.00 0.00 0.91 93 996.7
20260507135003 11 351 11.3 14.5 0.00 0.00 0.91 92 996.7
20260507134502 11 0 6.4 14.5 0.00 0.00 0.91 93 996.7
20260507134001 11 337 8.0 14.5 0.00 0.00 0.91 93 996.8
20260507133500 11 359 3.2 17.7 0.00 0.00 0.91 93 996.6
20260507132959 11 17 4.8 14.5 0.00 0.00 0.91 93 996.6
20260507132459 11 15 6.4 12.9 0.00 0.00 0.91 93 996.6
20260507131958 11 359 8.0 12.9 0.00 0.00 0.91 94 996.6
20260507131457 11 12 6.4 17.7 0.00 0.00 0.91 93 996.5
20260507130956 11 11 14.5 17.7 0.00 0.00 0.91 92 996.4
20260507130446 11 356 12.9 16.1 0.00 0.00 0.91 93 996.5
20260507125945 11 354 12.9 16.1 0.00 0.00 0.91 92 996.2
20260507125434 11 335 8.0 14.5 0.00 0.00 0.91 92 996.5
20260507124934 12 58 4.8 12.9 0.00 0.00 0.91 91 996.5
20260507124423 12 17 4.8 8.0 0.00 0.00 0.91 92 996.6
20260507123923 12 354 9.7 11.3 0.00 0.00 0.91 92 996.5
20260507123422 12 340 4.8 11.3 0.00 0.00 0.91 92 996.3
20260507122911 11 7 6.4 9.7 0.00 0.00 0.91 94 996.5
20260507122411 11 315 6.4 9.7 0.00 0.00 0.91 94 996.3
20260507121910 11 307 8.0 12.9 0.00 0.00 0.91 95 996.4
20260507121409 11 326 4.8 14.5 0.00 0.00 0.91 95 996.4
20260507120858 11 159 6.4 14.5 0.00 0.00 0.91 95 996.3
20260507120358 11 358 9.7 14.5 0.00 0.00 0.91 96 996.3
20260507115857 11 344 1.6 12.9 0.00 0.00 0.91 96 996.0
20260507115346 11 357 11.3 16.1 0.00 0.00 0.91 96 996.2
20260507114846 11 348 6.4 9.7 0.00 0.00 0.91 97 996.1
20260507114346 11 339 9.7 14.5 0.00 0.00 0.91 98 996.0
20260507113845 11 355 6.4 14.5 0.00 0.00 0.91 98 996.1
20260507113344 11 29 8.0 9.7 0.00 0.00 0.91 98 996.0
20260507112834 11 0 9.7 12.9 0.00 0.00 0.91 98 995.9
20260507112334 11 342 4.8 12.9 0.00 0.00 0.91 98 996.2
20260507111835 11 337 8.0 11.3 0.00 0.00 0.91 98 996.0
20260507111332 11 350 8.0 11.3 0.00 0.00 0.91 98 995.9
20260507110832 11 335 6.4 11.3 0.00 0.00 0.91 98 995.9
20260507110331 11 327 11.3 12.9 0.00 0.00 0.91 99 996.0
20260507105830 11 308 6.4 9.7 0.00 0.00 0.91 99 995.7
20260507105329 11 352 4.8 12.9 0.00 0.00 0.91 99 995.8
20260507104828 11 349 9.7 16.1 0.00 0.00 0.91 99 995.7
20260507104328 11 322 3.2 12.9 0.00 0.00 0.91 99 995.5
20260507103827 11 141 0.0 9.7 0.00 0.00 0.91 99 995.5
20260507103327 11 308 11.3 14.5 0.00 0.00 0.91 99 995.8
20260507102826 11 332 12.9 17.7 0.00 0.00 0.91 98 995.4
20260507102326 11 334 11.3 14.5 0.00 0.00 0.91 98 995.7
20260507101825 11 326 6.4 12.9 0.00 0.00 0.91 99 995.6
20260507101323 11 348 9.7 14.5 0.00 0.00 0.91 98 995.6
20260507100823 11 277 6.4 12.9 0.00 0.00 0.91 99 995.4
20260507100323 11 328 4.8 12.9 0.00 0.00 0.91 98 995.3
20260507095823 11 39 3.2 8.0 0.00 0.00 0.91 99 995.3
20260507095322 11 67 3.2 12.9 0.00 0.00 0.91 99 995.3
20260507094822 11 50 4.8 4.8 0.00 0.00 0.91 99 995.1
20260507094321 11 124 0.0 4.8 0.00 0.00 0.91 99 994.9
20260507093821 11 330 12.9 17.7 0.00 0.00 0.91 98 995.0
20260507093320 11 300 4.8 12.9 0.00 0.00 0.91 99 994.9
20260507092819 11 7 1.6 9.7 0.00 0.00 0.91 99 995.0
20260507092319 12 234 9.7 12.9 0.00 0.00 0.91 99 994.8
20260507091819 12 303 3.2 4.8 0.00 0.00 0.91 99 995.1
20260507091318 12 326 1.6 4.8 0.00 0.00 0.91 99 994.9
20260507090817 12 277 4.8 9.7 0.00 0.00 0.91 99 994.7
20260507090316 12 313 1.6 11.3 0.00 0.00 0.91 99 994.6
20260507085816 12 14 3.2 9.7 0.00 0.00 0.91 99 994.5
20260507085315 12 290 1.6 3.2 0.00 0.00 0.91 99 994.4
20260507084814 12 333 6.4 9.7 0.00 0.00 0.91 99 994.3
20260507084313 12 327 6.4 9.7 0.00 0.00 0.91 99 994.4
20260507083813 12 289 1.6 3.2 0.00 0.00 0.91 99 994.3
20260507083312 11 349 3.2 4.8 0.00 0.00 0.91 99 994.4
20260507082812 12 357 4.8 8.0 0.00 0.00 0.91 99 994.4
20260507082312 11 334 6.4 9.7 0.00 0.00 0.91 99 994.2
20260507081812 11 88 0.0 1.6 0.00 0.00 0.91 99 994.1
20260507081311 11 304 1.6 4.8 0.00 0.00 0.91 99 994.0
20260507080810 11 42 4.8 4.8 0.00 0.00 0.91 99 994.1
20260507080310 11 25 3.2 4.8 0.00 0.00 0.91 99 993.9
20260507075809 11 281 1.6 3.2 0.00 0.00 0.91 99 994.1
20260507075308 11 245 1.6 8.0 0.00 0.00 0.91 99 993.8
20260507074808 11 303 3.2 4.8 0.00 0.00 0.91 99 994.1
20260507074307 11 48 3.2 3.2 0.00 0.00 0.91 99 993.9
20260507073806 11 71 1.6 4.8 0.00 0.00 0.91 99 993.8
20260507073306 11 358 1.6 3.2 0.00 0.00 0.91 99 993.8
20260507072805 11 329 0.0 3.2 0.00 0.00 0.91 99 994.0
20260507072307 11 60 0.0 4.8 0.00 0.00 0.91 99 993.9
20260507071804 11 110 0.0 4.8 0.00 0.00 0.91 99 993.8
20260507071303 11 289 6.4 8.0 0.00 0.00 0.91 99 993.6
20260507070802 11 47 1.6 3.2 0.00 0.00 0.91 99 993.4
20260507070251 11 47 3.2 4.8 0.00 0.00 0.91 99 993.9
20260507065751 11 54 0.0 3.2 0.00 0.00 0.91 99 993.7
20260507065250 11 59 0.0 3.2 0.00 0.00 0.91 99 993.5
20260507064740 11 4 1.6 4.8 0.00 0.00 0.91 99 993.5
20260507064239 11 7 4.8 11.3 0.00 0.00 0.91 99 993.5
20260507063739 11 21 4.8 9.7 0.00 0.00 0.91 99 993.2
20260507063238 11 40 4.8 11.3 0.00 0.00 0.91 99 993.5
20260507062737 11 70 3.2 3.2 0.00 0.00 0.91 99 993.3
20260507062237 11 57 4.8 12.9 0.00 0.00 0.91 99 993.4
20260507061736 11 49 4.8 8.0 0.00 0.00 0.91 99 993.2
20260507061236 11 358 3.2 9.7 0.00 0.00 0.91 99 993.2
20260507060736 11 16 9.7 11.3 0.00 0.00 0.91 99 993.3
20260507060235 11 359 8.0 14.5 0.00 0.00 0.91 99 993.0
20260507055735 11 24 4.8 8.0 0.00 0.00 0.91 99 993.1
20260507055235 11 22 3.2 4.8 0.00 0.00 0.91 99 993.0
20260507054734 11 54 0.0 8.0 0.00 0.00 0.91 99 992.7
20260507054233 11 6 8.0 12.9 0.00 0.00 0.91 99 992.8
20260507053733 11 16 6.4 12.9 0.00 0.00 0.91 99 992.7
20260507053233 11 24 4.8 12.9 0.00 0.00 0.91 99 992.8
20260507052732 11 314 9.7 12.9 0.00 0.00 0.91 99 992.7
20260507052232 11 342 4.8 12.9 0.00 0.00 0.91 99 992.5
20260507051731 11 15 8.0 11.3 0.00 0.00 0.91 99 992.6
20260507051230 11 347 9.7 14.5 0.00 0.00 0.91 99 992.5
20260507050729 11 278 3.2 3.2 0.00 0.00 0.91 99 992.5
20260507050229 11 359 3.2 4.8 0.00 0.00 0.91 99 992.6
20260507045728 11 47 0.0 8.0 0.00 0.00 0.91 99 992.2
20260507045228 11 29 4.8 8.0 0.00 0.00 0.91 99 992.2
20260507044727 11 299 4.8 8.0 0.00 0.00 0.91 99 992.1
20260507044226 11 6 4.8 11.3 0.00 0.00 0.91 99 992.4
20260507043726 11 306 1.6 4.8 0.00 0.00 0.91 99 992.3
20260507043225 11 353 8.0 11.3 0.00 0.00 0.91 99 992.1
20260507042725 11 188 1.6 8.0 0.00 0.00 0.91 99 992.2
20260507042225 11 52 0.0 1.6 0.00 0.00 0.91 99 992.2
20260507041724 11 260 3.2 4.8 0.00 0.00 0.91 99 992.1
20260507041224 11 300 4.8 11.3 0.00 0.00 0.91 99 992.2
20260507040723 12 253 8.0 12.9 0.00 0.00 0.91 99 992.0
20260507040223 12 339 8.0 12.9 0.00 0.00 0.91 99 992.0
20260507035722 12 304 3.2 9.7 0.00 0.00 0.91 99 991.9
20260507035210 12 46 4.8 12.9 0.00 0.00 0.91 99 991.8